Flag for Russia Weather past 2 weeks in Nizhny Novgorod, Russia

Now
55 °F

Fog.


Feels Like: 55 °F
Forecast: 56 / 71 °F
Wind: 1 mph from North

Location: Nizhny Novgorod/Strigino

Current Time: Aug 28, 2015 at 1:37:43 AM

Latest Report: Aug 28, 2015 at 1:00 AM


Visibility: 3 mi

Pressure: 29.95 "Hg

Humidity: 94%

Dew point: 54 °F

Location of Nizhny NovgorodLocation

Historic Weather in Nizhny Novgorod — Graph

°F

Nizhny Novgorod temperature yesterday

Maximum temperature yesterday: 77 °F (at 12:30 PM)
Minimum temperature yesterday: 50 °F (at 3:00 AM)
Average temperature yesterday: 64 °F

Past Weeks' High & Low Weather Summary

 TemperatureHumidityPressure
High77 °F (Aug 13, 2:30 PM)100% (Aug 13, 12:30 AM)30.30 "Hg (Aug 13, 12:30 AM)
Low34 °F (Aug 24, 5:00 AM)42% (Aug 22, 3:00 PM)29.77 "Hg (Aug 15, 10:00 PM)
Average58 °F76%30.04 "Hg
* Reported Midnight between Aug 12 and Aug 13 — Aug 28 12:30 AM, Nizhny Novgorod, Weather by CustomWeather, © 2015

Note: Actual official high and low records may vary slightly from our data, if they occured in-between our weather recording intervals... More about our weather records

Advertising

Nizhny Novgorod weather history for previous 24 hours

 ConditionsComfort  
Time TempWeatherWind HumidityBarometerVisibility
12:30 AM
Fri, Aug 28
55 °FFog.1 mph94%29.95 "Hg2 mi
11:30 PM
Thu, Aug 27
54 °FFog.1 mph100%29.95 "Hg2 mi
11:00 PM55 °FFog.No wind100%29.95 "Hg3 mi
10:30 PM55 °FFog.1 mph94%29.95 "Hg2 mi
10:00 PM57 °FFog.No wind94%29.95 "Hg3 mi
9:30 PM57 °FFog.1 mph94%29.92 "Hg3 mi
9:00 PM57 °FClear.1 mph100%29.95 "Hg4 mi
8:30 PM59 °FClear.1 mph94%29.92 "Hg4 mi
8:00 PM59 °FPassing clouds.1 mph100%29.92 "Hg4 mi
7:30 PM61 °FPassing clouds.1 mph94%29.92 "Hg6 mi
7:00 PM64 °FPassing clouds.1 mph88%29.92 "HgN/A
6:30 PM70 °FScattered clouds.1 mph78%29.92 "HgN/A
6:00 PM75 °FScattered clouds.1 mph61%29.92 "HgN/A
5:30 PM77 °FScattered clouds.3 mph54%29.92 "HgN/A
5:00 PM77 °FScattered clouds.3 mph54%29.92 "HgN/A
4:30 PM77 °FPassing clouds.3 mph51%29.92 "HgN/A
4:00 PM77 °FPassing clouds.6 mph51%29.92 "HgN/A
3:30 PM77 °FScattered clouds.6 mph51%29.92 "HgN/A
3:00 PM77 °FScattered clouds.6 mph51%29.95 "HgN/A
2:30 PM77 °FPassing clouds.3 mph51%29.95 "HgN/A
2:00 PM77 °FPassing clouds.6 mph47%29.95 "HgN/A
1:30 PM77 °FPassing clouds.3 mph44%29.95 "HgN/A
12:30 PM77 °FSunny.6 mph47%29.95 "Hg10 mi
12:00 PM75 °FPassing clouds.3 mph50%29.95 "HgN/A
11:30 AM73 °FPassing clouds.6 mph53%29.95 "HgN/A
11:00 AM72 °FPassing clouds.3 mph57%29.95 "HgN/A
10:30 AM72 °FClear.6 mph57%29.95 "Hg6 mi
10:00 AM70 °FClear.3 mph64%29.95 "Hg6 mi
9:30 AM66 °FClear.6 mph73%29.95 "Hg6 mi
9:00 AM64 °FPassing clouds.3 mph78%29.95 "Hg5 mi
8:30 AM63 °FScattered clouds.1 mph83%29.95 "Hg5 mi
8:00 AM63 °FScattered clouds.3 mph77%29.95 "Hg6 mi
7:30 AM61 °FScattered clouds.3 mph83%29.95 "HgN/A
7:00 AM59 °FScattered clouds.1 mph88%29.95 "Hg6 mi
6:30 AM55 °FScattered clouds.No wind100%29.95 "Hg6 mi
5:30 AM52 °FFog.1 mph100%29.95 "Hg3 mi
5:00 AM50 °FFog.1 mph100%29.92 "Hg2 mi
4:30 AM52 °FPassing clouds.1 mph94%29.95 "Hg4 mi
4:00 AM52 °FClear.No wind100%29.92 "Hg5 mi
3:30 AM50 °FClear.1 mph100%29.95 "Hg4 mi
3:00 AM50 °FClear.1 mph100%29.95 "Hg4 mi
2:30 AM52 °FClear.1 mph94%29.95 "Hg5 mi
2:00 AM52 °FClear.1 mph94%29.95 "Hg6 mi
1:30 AM54 °FClear.No wind94%29.95 "Hg10 mi
Weather by CustomWeather, © 2015

See weather overviewHow to use our weather pages